EW4251 Weather Reports


time (UTC)temp
F
wind
direction
speed
knots
gust
knots
rain 1hr
in
rain 24hr
in
rain mn
in
humidity
%
barometer
mb
20260503180033 61 167 3.5 6.1 0.00 0.00 0.00 53 1012.9
20260503175511 60 245 1.7 7.0 0.00 0.00 0.00 55 1012.9
20260503175054 60 204 2.6 7.0 0.00 0.00 0.00 55 1013.0
20260503174533 60 269 3.5 8.7 0.00 0.00 0.00 51 1012.9
20260503174013 60 196 3.5 8.7 0.00 0.00 0.00 53 1012.8
20260503173556 60 212 1.7 10.4 0.00 0.00 0.00 51 1012.8
20260503173039 59 281 3.5 10.4 0.00 0.00 0.00 52 1012.8
20260503172514 59 217 0.9 7.8 0.00 0.00 0.00 50 1012.9
20260503172058 59 212 2.6 7.0 0.00 0.00 0.00 50 1012.9
20260503171545 59 315 1.7 7.0 0.00 0.00 0.00 46 1012.9
20260503171017 58 259 0.9 7.0 0.00 0.00 0.00 44 1012.9
20260503170558 58 229 1.7 9.6 0.00 0.00 0.00 46 1012.9
20260503150516 55 290 0.9 5.2 0.00 0.00 0.00 32 1012.3
20260503131049 53 213 0.9 5.2 0.00 0.00 0.00 27 1011.0
20260503130527 53 265 0.0 4.3 0.00 0.00 0.00 26 1010.8
20260503130108 53 217 0.9 4.3 0.00 0.00 0.00 26 1010.8
20260503110546 53 288 0.0 3.5 0.00 0.00 0.00 21 1010.9
20260503081557 54 295 0.0 1.7 0.00 0.00 0.00 22 1011.6
20260503081036 54 275 0.0 1.7 0.00 0.00 0.00 22 1011.6
20260503080525 54 228 0.0 0.9 0.00 0.00 0.00 22 1011.8
20260503072048 54 254 0.0 0.9 0.00 0.00 0.00 21 1011.7
20260503071527 54 254 0.0 0.9 0.00 0.00 0.00 21 1011.7
20260503071008 54 253 0.0 0.9 0.00 0.00 0.00 22 1011.6
20260503070554 54 253 0.0 1.7 0.00 0.00 0.00 22 1011.7
20260503055002 54 238 0.0 0.9 0.00 0.00 0.00 25 1012.1
20260503054556 54 236 0.0 0.9 0.00 0.00 0.00 26 1012.2
20260503054024 54 345 0.0 1.7 0.00 0.00 0.00 25 1012.2
20260503053503 54 326 0.0 4.3 0.00 0.00 0.00 25 1012.1
20260503053046 54 337 0.0 4.3 0.00 0.00 0.00 25 1012.1
20260503052525 54 278 0.0 2.6 0.00 0.00 0.00 25 1012.2
20260503052007 54 246 0.0 1.7 0.00 0.00 0.00 25 1012.2
20260503051547 55 315 0.0 1.7 0.00 0.00 0.00 25 1012.1
20260503051023 55 320 0.0 2.6 0.00 0.00 0.00 24 1012.1
20260503050504 55 259 0.0 1.7 0.00 0.00 0.00 24 1012.2
20260503050046 55 255 0.0 3.5 0.00 0.00 0.00 26 1012.1
20260503045526 55 321 0.0 3.5 0.00 0.00 0.00 26 1012.1
20260503045007 55 332 0.0 2.6 0.00 0.00 0.00 26 1012.1
20260503044548 55 328 0.0 1.7 0.00 0.00 0.00 26 1012.1
20260503044027 55 314 0.0 1.7 0.00 0.00 0.00 27 1012.1
20260503043506 55 338 0.0 4.3 0.00 0.00 0.00 27 1012.0
20260503043050 55 340 0.0 4.3 0.00 0.00 0.00 28 1012.0
20260503042529 55 305 0.0 2.6 0.00 0.00 0.00 28 1012.0
20260503042008 55 318 0.0 2.6 0.00 0.00 0.00 28 1011.9
20260503041551 55 211 0.0 3.5 0.00 0.00 0.00 28 1011.9
20260503041033 55 350 0.0 3.5 0.00 0.00 0.00 28 1011.9
20260503040510 55 339 0.0 3.5 0.00 0.00 0.00 28 1011.9
20260503040104 55 69 0.9 3.5 0.00 0.00 0.00 29 1011.9
20260503035532 55 257 0.0 3.5 0.00 0.00 0.00 29 1011.8
20260503035011 55 15 0.9 3.5 0.00 0.00 0.00 30 1011.8
20260503034555 55 252 0.0 1.7 0.00 0.00 0.00 29 1011.7
20260503034036 55 337 0.0 1.7 0.00 0.00 0.00 29 1011.7
20260503033513 55 311 0.0 1.7 0.00 0.00 0.00 30 1011.7
20260503033056 55 311 0.0 1.7 0.00 0.00 0.00 30 1011.6
20260503032535 56 359 0.0 1.7 0.00 0.00 0.00 32 1011.5
20260503032015 56 354 0.0 1.7 0.00 0.00 0.00 32 1011.3
20260503031606 56 321 0.0 1.7 0.00 0.00 0.00 33 1011.3
20260503031037 56 333 0.0 2.6 0.00 0.00 0.00 33 1011.2
20260503030516 56 354 0.0 2.6 0.00 0.00 0.00 34 1011.2
20260503030059 56 6 0.0 3.5 0.00 0.00 0.00 35 1011.1
20260503025538 56 335 0.0 4.3 0.00 0.00 0.00 35 1011.1
20260503025018 56 261 0.0 2.6 0.00 0.00 0.00 35 1011.1
20260503024603 56 286 0.0 2.6 0.00 0.00 0.00 33 1011.2
20260503024041 56 307 0.0 5.2 0.00 0.00 0.00 31 1011.1
20260503023520 56 199 0.0 6.1 0.00 0.00 0.00 31 1011.1
20260503023102 56 280 0.9 6.1 0.00 0.00 0.00 33 1011.2
20260503022541 56 240 0.9 6.1 0.00 0.00 0.00 34 1011.1
20260503022020 56 153 1.7 6.1 0.00 0.00 0.00 35 1011.1
20260503021604 57 223 0.0 6.1 0.00 0.00 0.00 35 1011.1
20260503021042 57 175 0.9 7.0 0.00 0.00 0.00 37 1011.1
20260503020522 57 225 1.7 7.0 0.00 0.00 0.00 39 1011.2
20260503020001 57 244 0.9 5.2 0.00 0.00 0.00 40 1011.1
20260503015546 57 241 2.6 5.2 0.00 0.00 0.00 41 1011.1
20260503015025 57 245 2.6 7.0 0.00 0.00 0.00 43 1011.2
20260503014503 57 195 0.9 7.8 0.00 0.00 0.00 43 1011.2
20260503014047 57 184 1.7 7.8 0.00 0.00 0.00 44 1011.2
20260503013525 57 198 2.6 7.8 0.00 0.00 0.00 44 1011.2
20260503013005 58 239 0.9 6.1 0.00 0.00 0.00 46 1011.4
20260503012548 58 203 1.7 6.1 0.00 0.00 0.00 47 1011.3
20260503012031 58 234 1.7 7.8 0.00 0.00 0.00 47 1011.3
20260503011506 58 212 3.5 7.8 0.00 0.00 0.00 49 1011.4
20260503011049 58 233 0.0 7.0 0.00 0.00 0.00 47 1011.3
20260503010528 58 178 1.7 7.0 0.00 0.00 0.00 48 1011.3
20260503010007 58 228 1.7 8.7 0.00 0.00 0.00 50 1011.3
20260503005553 59 224 1.7 8.7 0.00 0.00 0.00 51 1011.4
20260503005030 59 238 0.9 6.1 0.00 0.00 0.00 51 1011.3
20260503004510 59 242 1.7 6.1 0.00 0.00 0.00 52 1011.4
20260503004057 59 270 1.7 7.8 0.00 0.00 0.00 50 1011.4
20260503003531 59 169 3.5 7.8 0.00 0.00 0.00 51 1011.4
20260503003011 60 229 2.6 7.0 0.00 0.00 0.00 52 1011.4
20260503002555 60 157 1.7 7.0 0.00 0.00 0.00 50 1011.4
20260503002035 60 248 1.7 7.0 0.00 0.00 0.00 50 1011.4
20260503001513 60 207 1.7 6.1 0.00 0.00 0.00 50 1011.4
20260503001055 60 219 2.6 7.0 0.00 0.00 0.00 50 1011.4
20260503000535 60 228 1.7 7.8 0.00 0.00 0.00 50 1011.5
20260503000015 60 174 1.7 8.7 0.00 0.00 0.00 48 1011.5
20260502235557 59 167 2.6 9.6 0.00 0.00 0.00 47 1011.6
20260502235036 59 227 6.1 9.6 0.00 0.00 0.00 47 1011.6
20260502234526 59 150 1.7 12.2 0.00 0.00 0.00 45 1011.7
20260502234100 59 215 6.1 12.2 0.00 0.00 0.00 48 1011.7
20260502233539 59 149 5.2 13.0 0.00 0.00 0.00 47 1011.7
20260502233018 59 157 6.1 13.0 0.00 0.00 0.00 47 1011.8
20260502232606 59 155 7.0 13.0 0.00 0.00 0.00 48 1011.8
20260502232042 59 204 7.0 13.0 0.00 0.00 0.00 49 1011.9
20260502231520 60 205 7.0 14.8 0.00 0.00 0.00 51 1012.0
20260502231106 60 177 3.5 14.8 0.00 0.00 0.00 50 1012.0
20260502230542 61 172 5.2 9.6 0.00 0.00 0.00 49 1012.1
20260502230029 60 192 4.3 12.2 0.00 0.00 0.00 51 1012.2
20260502225502 60 228 2.6 10.4 0.00 0.00 0.00 49 1012.3
20260502225043 60 150 3.5 13.0 0.00 0.00 0.00 50 1012.3
20260502224523 60 170 6.1 15.6 0.00 0.00 0.00 49 1012.3
20260502224002 59 158 4.3 15.6 0.00 0.00 0.00 49 1012.4
20260502223545 59 200 7.8 13.9 0.00 0.00 0.00 48 1012.5
20260502223025 59 157 7.0 14.8 0.00 0.00 0.00 49 1012.5
20260502222503 59 240 2.6 12.2 0.00 0.00 0.00 48 1012.6
20260502222048 59 140 7.0 13.0 0.00 0.00 0.00 47 1012.7
20260502221526 58 240 7.0 13.0 0.00 0.00 0.00 47 1012.8
20260502221005 59 173 7.8 13.0 0.00 0.00 0.00 47 1012.8
20260502220549 59 144 4.3 13.9 0.00 0.00 0.00 48 1012.9
20260502220029 59 184 7.8 13.9 0.00 0.00 0.00 44 1012.9
20260502215507 59 198 3.5 12.2 0.00 0.00 0.00 49 1013.0
20260502215053 59 243 7.8 12.2 0.00 0.00 0.00 50 1012.9
20260502214529 60 191 4.3 10.4 0.00 0.00 0.00 51 1013.0
20260502214008 60 155 3.5 13.9 0.00 0.00 0.00 51 1013.0
20260502213548 59 228 4.3 14.8 0.00 0.00 0.00 51 1012.9
20260502213027 59 208 7.0 14.8 0.00 0.00 0.00 48 1013.0
20260502212509 59 176 7.0 15.6 0.00 0.00 0.00 48 1013.1
20260502212049 59 139 6.1 13.0 0.00 0.00 0.00 48 1013.1
20260502211529 59 200 3.5 9.6 0.00 0.00 0.00 47 1013.1
20260502211009 59 212 4.3 11.3 0.00 0.00 0.00 46 1013.2
20260502210551 59 207 3.5 9.6 0.00 0.00 0.00 46 1013.3
20260502210030 59 250 2.6 8.7 0.00 0.00 0.00 45 1013.4
20260502205510 59 203 4.3 8.7 0.00 0.00 0.00 43 1013.4
20260502205052 59 157 0.9 6.1 0.00 0.00 0.00 45 1013.4
20260502204533 59 266 1.7 11.3 0.00 0.00 0.00 42 1013.5
20260502204013 59 323 0.0 13.9 0.00 0.00 0.00 41 1013.5
20260502203604 58 181 4.3 14.8 0.00 0.00 0.00 42 1013.6
20260502203042 59 147 3.5 14.8 0.00 0.00 0.00 41 1013.6
20260502202520 58 170 6.1 14.8 0.00 0.00 0.00 39 1013.7
20260502202104 58 149 5.2 13.0 0.00 0.00 0.00 35 1013.5
20260502201554 58 116 2.6 15.6 0.00 0.00 0.00 31 1013.6
20260502201030 58 140 6.1 15.6 0.00 0.00 0.00 34 1013.7
20260502200509 57 124 1.7 13.0 0.00 0.00 0.00 30 1013.6
20260502200053 57 122 2.6 13.9 0.00 0.00 0.00 27 1013.6
20260502195531 57 112 3.5 13.9 0.00 0.00 0.00 28 1013.7
20260502195011 57 186 6.1 13.0 0.00 0.00 0.00 29 1013.6
20260502194554 57 53 3.5 13.0 0.00 0.00 0.00 28 1013.7
20260502194038 57 130 6.1 12.2 0.00 0.00 0.00 30 1013.8
20260502193513 58 163 4.3 9.6 0.00 0.00 0.00 31 1013.7
20260502193103 58 182 1.7 4.3 0.00 0.00 0.00 30 1013.7
20260502192535 58 343 1.7 10.4 0.00 0.00 0.00 27 1013.7
20260502192013 57 148 2.6 10.4 0.00 0.00 0.00 28 1013.7
20260502191601 57 210 1.7 13.0 0.00 0.00 0.00 32 1013.7
20260502191045 57 91 0.9 13.0 0.00 0.00 0.00 26 1013.7
20260502190524 56 112 4.3 14.8 0.00 0.00 0.00 26 1013.7
20260502190004 56 190 6.1 9.6 0.00 0.00 0.00 23 1013.7
20260502185546 56 101 3.5 15.6 0.00 0.00 0.00 26 1013.8
20260502185025 56 178 5.2 15.6 0.00 0.00 0.00 23 1013.9
20260502184513 56 221 5.2 11.3 0.00 0.00 0.00 22 1013.9
20260502184048 56 153 3.5 11.3 0.00 0.00 0.00 21 1013.8
20260502183527 56 150 2.6 7.8 0.00 0.00 0.00 21 1013.8
20260502183016 56 159 3.5 8.7 0.00 0.00 0.00 20 1013.8
20260502182550 56 105 3.5 8.7 0.00 0.00 0.00 20 1013.8
20260502182036 55 145 0.0 6.1 0.00 0.00 0.00 13 1013.8
20260502181519 55 105 1.7 6.1 0.00 0.00 0.00 11 1013.7
20260502181058 55 75 0.9 4.3 0.00 0.00 0.00 13 1013.8
20260502180542 55 228 0.0 4.3 0.00 0.00 0.00 11 1013.8